Date,TemperatureHighF,TemperatureAvgF,TemperatureLowF,DewpointHighF,DewpointAvgF,DewpointLowF,HumidityHigh,HumidityAvg,HumidityLow,PressureMaxIn,PressureMinIn,WindSpeedMaxMPH,WindSpeedAvgMPH,GustSpeedMaxMPH,PrecipitationSumIn
2013-1-1,37.9,30.8,25.1,37.1,30.6,24.9,100,99,96,30.52,30.37,7,0,7,0.04
2013-1-2,37.8,30.5,24.8,36.5,30.2,24.6,100,99,94,30.37,30.21,3,0,3,0.01
2013-1-3,38.2,29.8,21.5,37.9,28.8,20.9,100,96,80,30.21,30.13,6,0,6,0.11
2013-1-4,46.7,41.2,38.1,45.6,41.0,38.0,100,99,94,30.35,30.17,7,0,7,0.10
2013-1-5,41.7,39.5,38.0,39.9,38.7,37.8,100,97,89,30.20,30.13,7,0,7,0.06
2013-1-6,43.3,39.5,36.1,42.8,39.2,35.8,100,99,94,30.22,30.00,7,0,7,0.22
2013-1-7,48.9,45.1,41.1,48.9,44.8,41.0,100,99,94,30.19,29.87,16,3,16,0.46
2013-1-8,49.9,46.0,41.8,49.9,45.9,41.8,100,100,97,30.19,29.78,13,2,13,0.93
2013-1-9,48.7,39.7,33.1,48.7,39.5,33.1,100,99,94,29.97,29.70,12,1,12,0.65
2013-1-10,37.8,34.5,32.7,37.7,34.4,32.7,100,100,97,30.14,29.97,3,0,7,0.01
2013-1-11,37.4,30.3,25.4,32.6,28.6,25.0,100,94,71,30.35,30.13,11,1,11,0.00
2013-1-12,36.2,27.4,21.2,32.8,26.0,20.7,100,95,79,30.46,30.33,10,1,10,0.01
2013-1-13,36.5,27.0,20.0,32.2,25.4,19.3,100,94,79,30.52,30.44,8,0,8,0.00
2013-1-14,32.2,27.7,21.3,32.2,27.4,20.6,100,99,97,30.59,30.49,5,0,5,0.01
2013-1-15,41.6,33.8,26.9,38.1,32.7,26.3,100,96,84,30.73,30.58,13,1,13,0.02
2013-1-16,36.2,29.1,24.6,36.2,29.0,24.4,100,99,97,30.69,30.53,3,0,3,0.00
2013-1-17,35.0,31.4,26.1,35.0,31.4,25.8,100,100,99,30.54,30.31,3,0,3,0.01
2013-1-18,39.9,32.4,25.9,38.7,32.2,25.9,100,99,93,30.35,30.27,10,1,10,0.00
2013-1-19,37.7,35.6,33.4,36.7,35.2,33.4,100,98,95,30.40,30.34,10,2,10,0.00
2013-1-20,37.6,35.0,32.1,37.1,34.8,32.1,100,99,97,30.41,30.28,9,1,9,0.00
2013-1-21,35.5,32.3,28.9,35.5,32.3,28.8,100,100,99,30.30,30.16,6,0,6,0.00
2013-1-22,36.8,30.2,23.8,36.2,30.1,23.6,100,99,96,30.16,29.94,3,0,3,0.01
2013-1-23,39.2,36.3,33.7,39.2,35.9,33.4,100,98,94,30.18,29.89,7,1,7,0.17
2013-1-24,44.3,38.5,33.0,43.0,38.2,33.0,100,99,92,30.24,30.07,6,0,6,0.24
2013-1-25,51.7,42.2,30.7,48.2,41.6,30.7,100,98,84,30.08,29.95,6,0,6,0.05
2013-1-26,45.6,39.3,30.5,43.9,38.7,30.5,100,98,91,30.07,29.90,8,1,8,0.13
2013-1-27,40.9,38.8,36.5,40.9,38.6,36.2,100,99,96,30.10,30.01,7,1,7,0.16
2013-1-28,43.9,41.2,38.2,42.3,40.1,37.2,100,96,91,30.13,30.02,16,2,16,0.06
2013-1-29,50.1,45.9,42.7,46.6,44.1,42.0,99,94,86,30.40,30.12,18,2,18,0.02
2013-1-30,49.0,46.4,43.9,49.0,46.3,43.6,100,100,98,30.40,30.35,10,2,10,0.22
2013-1-31,49.0,45.7,42.5,47.7,45.4,42.5,100,99,89,30.42,30.32,12,1,12,0.08
2013-2-1,49.1,45.0,42.3,46.9,44.2,42.3,100,97,88,30.41,30.34,11,2,11,0.00
2013-2-2,46.9,41.3,32.3,44.3,40.3,31.8,100,96,88,30.38,30.26,9,1,9,0.00
2013-2-3,45.9,40.9,34.4,44.7,40.7,34.4,100,99,95,30.33,30.23,4,0,4,0.00
2013-2-4,52.4,45.0,38.2,47.0,43.2,37.7,100,94,76,30.23,29.92,7,0,7,0.00
2013-2-5,49.4,43.7,38.5,48.2,43.2,38.5,100,98,90,29.98,29.86,11,2,11,0.35
2013-2-6,47.8,43.8,41.4,44.7,42.7,40.5,100,96,87,30.07,29.79,18,2,18,0.17
2013-2-7,50.4,40.1,29.1,42.3,37.2,28.6,100,90,57,30.20,29.83,7,1,7,0.07
2013-2-8,46.1,35.9,27.2,40.6,33.8,26.7,100,93,70,30.33,30.20,9,1,9,0.01
2013-2-9,51.7,39.3,29.2,41.8,36.0,29.0,100,89,64,30.35,30.26,5,0,5,0.00
2013-2-10,45.2,42.4,40.4,41.4,39.8,38.0,98,91,77,30.39,30.34,8,1,8,0.00
2013-2-11,46.5,42.6,37.9,44.7,41.7,37.6,100,97,88,30.37,30.34,5,0,5,0.00
2013-2-12,51.3,46.3,42.7,48.6,45.6,42.4,100,97,87,30.43,30.36,14,1,14,0.04
2013-2-13,48.5,43.5,33.0,45.8,42.0,32.7,100,95,85,30.53,30.36,13,1,13,0.02
2013-2-14,47.2,41.6,32.6,46.9,41.5,32.3,100,100,98,30.57,30.52,6,0,6,0.01
2013-2-15,56.2,45.8,34.8,48.3,43.6,34.5,100,93,71,30.56,30.20,12,2,12,0.00
2013-2-16,52.9,43.7,34.3,45.9,40.7,34.1,100,89,71,30.23,30.19,19,3,19,0.01
2013-2-17,47.9,40.3,32.7,42.6,37.6,31.9,98,90,77,30.28,30.12,10,1,10,0.01
2013-2-18,46.2,38.6,31.5,41.5,36.3,31.0,100,92,74,30.11,29.76,8,1,8,0.03
2013-2-19,54.2,42.0,34.8,42.8,39.0,34.3,99,90,57,30.02,29.74,13,1,13,0.03
2013-2-20,45.4,38.1,31.0,42.1,37.3,30.5,100,97,83,30.08,30.00,6,0,6,0.16
2013-2-21,42.5,40.4,37.7,42.5,40.2,37.7,100,99,96,30.11,30.03,11,2,11,0.27
2013-2-22,47.2,40.5,36.3,47.1,39.9,35.3,100,98,88,30.10,29.76,25,3,25,0.44
2013-2-23,49.7,41.9,36.6,40.6,37.4,34.5,100,85,63,30.40,29.98,24,3,24,0.63
2013-2-24,48.4,42.8,37.6,41.0,38.2,36.2,97,84,73,30.41,29.96,14,2,14,0.01
2013-2-25,51.1,42.3,36.6,42.5,38.7,34.5,99,88,62,30.33,29.93,21,3,21,0.41
2013-2-26,50.9,41.2,34.7,41.9,37.3,33.7,98,87,66,30.37,30.21,8,1,8,0.03
2013-2-27,49.2,43.0,36.7,46.9,42.2,36.2,100,97,88,30.31,30.21,8,0,8,0.11
2013-2-28,52.0,47.6,43.5,52.0,47.6,43.4,100,100,100,30.35,30.20,8,1,8,1.04
2013-3-1,55.3,51.7,48.9,53.6,50.9,48.0,100,97,90,30.41,30.30,10,1,10,0.07
2013-3-2,55.8,47.7,38.7,51.8,45.4,34.6,100,92,81,30.30,30.11,21,2,21,0.02
2013-3-3,57.2,43.1,33.5,40.4,36.1,32.6,98,78,47,30.31,30.24,12,1,12,0.00
2013-3-4,55.7,40.0,28.2,37.9,32.1,27.7,100,77,37,30.31,29.94,15,2,15,0.00
2013-3-5,46.9,40.7,34.0,42.2,38.3,30.8,99,91,79,29.94,29.73,9,1,9,0.23
2013-3-6,44.5,41.5,39.5,44.0,41.2,39.2,100,99,96,29.92,29.60,7,1,7,0.38
2013-3-7,54.4,44.1,33.4,46.4,41.5,32.6,100,91,68,30.09,29.92,8,1,8,0.31
2013-3-8,58.6,42.8,31.9,45.4,39.2,31.4,100,89,56,30.25,30.09,10,1,10,0.00
2013-3-9,63.9,41.6,28.3,45.8,35.6,27.9,100,82,44,30.52,30.26,8,0,8,0.00
2013-3-10,47.5,40.5,30.1,44.6,39.3,29.2,100,96,87,30.52,30.44,3,0,3,0.06
2013-3-11,50.6,45.8,43.0,49.1,45.3,43.0,100,98,91,30.45,30.19,4,0,4,0.17
2013-3-12,53.1,50.2,48.1,52.3,49.7,48.1,100,98,93,30.19,30.11,8,2,8,0.38
2013-3-13,53.5,50.1,47.9,53.2,50.0,47.9,100,100,98,30.23,30.10,6,1,6,0.26
2013-3-14,52.3,49.5,47.8,50.7,48.5,46.9,100,97,84,30.17,30.05,8,1,9,0.08
2013-3-15,59.8,51.6,46.8,53.6,49.4,45.0,100,92,75,30.23,30.17,11,1,11,0.03
2013-3-16,51.2,45.3,38.0,48.1,43.3,36.7,99,93,72,30.17,29.97,18,2,19,0.31
2013-3-17,49.9,41.1,37.2,41.6,37.2,34.3,96,86,63,30.25,30.03,16,2,16,0.02
2013-3-18,57.6,43.4,32.3,44.2,36.5,30.5,100,80,42,30.24,30.19,19,2,19,0.10
2013-3-19,47.9,39.6,30.7,43.3,37.9,29.5,100,94,73,30.23,29.60,10,1,10,0.48
2013-3-20,50.4,44.7,36.2,50.2,43.5,35.3,100,95,85,30.08,29.40,23,3,23,1.03
2013-3-21,49.5,39.1,34.7,44.8,36.7,31.6,100,92,65,30.25,30.08,18,2,18,0.17
2013-3-22,49.9,37.6,28.3,42.7,34.3,27.6,100,88,54,30.40,30.24,15,1,15,0.17
2013-3-23,58.7,39.6,31.6,40.9,34.0,30.3,100,83,36,30.41,30.31,8,0,8,0.00
2013-3-24,59.4,41.3,30.8,41.1,34.5,29.7,100,79,41,30.31,30.13,10,1,10,0.00
2013-3-25,62.1,44.4,28.4,43.4,35.6,27.6,100,75,39,30.14,29.95,10,1,10,0.00
2013-3-26,66.5,51.4,43.2,49.8,44.3,41.2,96,79,47,30.03,29.97,8,1,8,0.01
2013-3-27,64.3,52.2,45.5,49.4,46.0,43.9,99,81,52,30.00,29.94,12,1,12,0.03
2013-3-28,67.2,52.2,46.8,56.1,48.8,45.6,100,89,57,30.15,29.99,8,0,9,0.26
2013-3-29,73.3,54.5,45.6,54.5,47.6,42.8,100,81,42,30.27,30.15,11,1,11,0.00
2013-3-30,73.7,54.5,39.9,51.2,44.3,38.9,100,72,39,30.26,30.07,15,3,15,0.00
2013-3-31,78.1,56.0,37.2,51.7,44.3,35.7,100,69,33,30.07,29.92,10,1,10,0.00
2013-4-1,71.6,53.3,43.3,54.6,47.4,41.5,98,82,47,30.17,30.00,14,1,14,0.00
2013-4-2,58.9,52.8,45.5,51.1,48.0,43.3,94,84,70,30.22,30.17,12,1,12,0.00
2013-4-3,64.0,52.9,43.0,52.2,46.2,41.9,99,80,58,30.21,29.95,8,1,8,0.00
2013-4-4,55.7,51.4,48.3,55.7,49.9,46.0,100,95,82,29.95,29.66,7,1,7,0.43
2013-4-5,56.9,51.2,48.1,54.2,50.4,47.8,100,97,86,29.90,29.73,14,2,14,1.02
2013-4-6,53.7,47.9,44.1,51.1,46.5,43.5,100,95,82,29.95,29.72,15,2,15,0.64
2013-4-7,48.2,43.8,39.0,45.5,41.7,37.9,100,93,81,29.91,29.52,14,3,14,0.94
2013-4-8,58.7,45.8,36.4,48.5,42.4,35.6,100,88,65,30.29,29.91,12,1,12,0.00
2013-4-9,56.7,46.6,33.8,46.6,41.9,33.2,100,85,64,30.37,30.21,7,0,7,0.00
2013-4-10,55.5,50.6,44.3,51.4,45.7,40.2,100,84,68,30.29,29.98,23,3,23,0.42
2013-4-11,62.2,48.7,36.9,44.2,40.2,34.3,97,75,43,30.32,30.21,17,2,17,0.00
2013-4-12,46.9,40.8,33.4,44.2,38.7,32.0,98,92,75,30.21,29.75,17,1,17,0.19
2013-4-13,50.4,42.2,36.7,47.8,39.7,34.1,100,91,78,30.03,29.84,22,2,22,0.36
2013-4-14,56.4,42.5,35.8,48.0,40.3,35.3,100,92,67,30.03,29.95,13,1,13,0.15
2013-4-15,62.9,45.0,33.5,46.4,39.3,33.0,100,83,46,30.15,29.96,19,2,19,0.09
2013-4-16,61.1,46.3,32.8,47.8,38.2,32.5,100,77,42,30.42,30.25,14,2,14,0.00
2013-4-17,61.2,45.4,32.2,48.5,38.8,31.3,100,80,52,30.49,30.42,13,1,13,0.00
2013-4-18,55.0,47.8,43.1,49.8,44.8,39.6,98,89,75,30.49,30.26,8,1,8,0.05
2013-4-19,56.4,50.5,46.9,53.7,48.9,45.8,100,94,82,30.26,30.08,14,2,14,0.21
2013-4-20,59.5,50.3,45.2,51.0,45.8,43.0,98,85,64,30.31,30.25,17,3,17,0.00
2013-4-21,60.4,48.5,41.8,49.0,44.2,40.6,98,86,57,30.37,30.25,14,2,15,0.07
2013-4-22,67.0,48.4,32.1,47.0,35.6,25.5,100,69,23,30.54,30.37,17,3,17,0.00
2013-4-23,70.7,49.2,28.7,42.1,32.6,27.5,99,60,24,30.44,30.25,13,2,13,0.00
2013-4-24,76.8,54.6,34.1,46.6,38.4,32.0,99,60,23,30.34,30.08,12,2,12,0.00
2013-4-25,81.2,56.9,36.1,51.3,43.3,35.0,100,66,30,30.18,30.06,8,0,8,0.00
2013-4-26,78.8,56.5,40.6,55.1,42.8,28.5,98,67,22,30.27,30.17,11,1,11,0.00
2013-4-27,58.2,52.4,48.4,52.4,45.8,38.3,97,78,62,30.26,30.20,14,2,14,0.01
2013-4-28,61.7,52.4,47.6,51.0,46.7,41.3,99,83,53,30.25,29.98,20,2,20,0.22
2013-4-29,56.4,48.6,41.4,48.4,38.7,32.4,99,70,45,30.19,29.97,26,5,26,0.03
2013-4-30,64.9,47.5,36.1,41.6,35.2,32.5,90,64,36,30.47,30.19,12,2,12,0.00
2013-5-1,70.7,49.1,28.7,41.8,33.3,26.9,100,62,21,30.59,30.47,14,2,14,0.00
2013-5-2,73.6,55.8,37.7,46.8,39.1,33.8,91,57,31,30.56,30.36,13,3,13,0.00
2013-5-3,80.2,57.8,38.7,52.7,44.2,36.3,98,65,32,30.40,30.22,16,2,16,0.00
2013-5-4,84.5,63.1,41.8,52.5,44.3,38.1,97,58,22,30.23,29.99,16,3,16,0.00
2013-5-5,90.7,66.6,44.2,51.0,43.7,36.6,93,52,17,29.99,29.75,17,3,17,0.00
2013-5-6,91.7,66.7,44.0,56.5,49.1,42.1,97,60,23,29.87,29.76,14,1,14,0.00
2013-5-7,79.0,59.4,47.2,58.4,51.0,45.5,96,76,46,30.04,29.85,8,1,8,0.00
2013-5-8,80.3,59.2,47.5,59.2,51.2,45.3,96,77,43,30.17,30.04,8,0,8,0.00
2013-5-9,83.0,60.6,46.1,60.0,51.5,44.7,98,76,39,30.25,30.12,9,1,9,0.00
2013-5-10,87.0,64.7,44.7,61.7,53.0,43.7,100,70,40,30.22,30.10,8,0,8,0.00
2013-5-11,88.8,66.9,51.6,61.5,53.7,44.1,87,65,33,30.20,30.01,8,1,8,0.00
2013-5-12,73.8,62.9,56.8,60.8,57.3,55.0,95,83,58,30.11,30.04,13,1,13,0.08
2013-5-13,66.7,55.7,43.7,60.7,52.2,41.8,99,89,69,30.25,29.97,21,2,22,0.09
2013-5-14,71.5,54.6,43.4,50.4,44.7,40.2,98,73,36,30.27,30.14,7,0,7,0.00
2013-5-15,61.2,51.9,39.6,54.1,47.7,38.5,100,86,62,30.15,30.03,7,0,7,0.02
2013-5-16,75.1,58.2,48.0,57.3,52.1,47.0,100,83,43,30.03,29.89,10,1,10,0.10
2013-5-17,69.6,56.6,48.8,57.3,51.2,46.4,98,83,51,30.10,29.98,13,1,13,0.03
2013-5-18,63.8,54.1,46.8,55.2,50.1,45.3,97,87,65,30.30,30.09,8,0,8,0.03
2013-5-19,70.5,56.0,47.3,56.9,49.9,44.7,99,81,51,30.42,30.30,9,1,9,0.00
2013-5-20,74.3,56.0,42.0,56.5,48.2,40.7,99,78,44,30.38,29.93,11,1,11,0.06
2013-5-21,59.3,50.2,45.5,53.4,45.9,42.0,99,86,61,29.95,29.82,16,2,16,0.51
2013-5-22,51.0,46.8,43.0,48.8,44.6,41.4,97,92,85,29.96,29.89,7,1,7,0.15
2013-5-23,50.3,46.7,40.7,49.4,45.5,39.6,98,95,84,30.02,29.96,7,0,9,0.45
2013-5-24,60.4,51.6,45.8,56.5,49.7,45.4,100,93,77,30.09,29.98,10,0,10,0.29
2013-5-25,61.6,53.5,46.7,54.0,49.6,46.0,99,87,64,30.07,29.98,7,1,7,0.00
2013-5-26,63.0,55.0,49.4,58.5,52.2,48.3,100,91,73,30.01,29.97,9,1,9,0.17
2013-5-27,66.1,54.8,49.7,60.7,52.7,48.4,100,93,72,29.98,29.71,15,1,15,0.37
2013-5-28,65.3,55.9,50.5,56.3,51.2,47.4,99,85,63,29.91,29.78,15,2,15,0.03
2013-5-29,62.5,53.4,48.3,56.4,50.2,46.4,100,89,67,30.02,29.70,18,2,18,0.48
2013-5-30,62.2,53.4,47.2,56.4,49.4,45.7,97,87,70,30.27,30.02,11,1,11,0.08
2013-5-31,69.5,55.9,44.8,53.1,47.9,44.3,100,77,43,30.36,30.26,9,1,9,0.00
2013-6-1,78.3,61.1,47.8,58.6,51.6,46.3,97,74,43,30.27,30.05,12,2,12,0.00
2013-6-2,74.4,60.5,52.7,58.5,52.3,47.5,96,76,51,30.12,30.05,9,1,9,0.00
2013-6-3,80.0,59.0,42.2,61.2,50.1,41.1,100,75,44,30.15,30.06,11,1,11,0.00
2013-6-4,88.8,64.6,42.9,57.6,51.4,42.0,100,68,30,30.17,30.01,13,2,13,0.00
2013-6-5,87.2,65.4,48.7,63.7,55.7,47.6,100,74,40,30.12,30.02,10,1,10,0.00
2013-6-6,84.7,65.1,49.6,63.1,52.8,38.6,99,69,25,30.09,30.01,12,1,12,0.00
2013-6-7,73.8,59.9,48.9,60.7,51.0,45.4,91,74,53,30.17,30.05,15,1,15,0.00
2013-6-8,79.3,60.0,45.7,59.6,51.1,44.9,98,75,45,30.22,30.10,12,1,12,0.00
2013-6-9,72.8,57.0,46.7,56.8,48.8,42.9,98,76,46,30.14,30.03,11,1,11,0.00
2013-6-10,75.2,54.8,38.4,54.8,46.1,37.4,100,75,46,30.06,29.92,10,1,10,0.00
2013-6-11,67.2,55.4,44.4,54.8,47.8,42.2,97,77,53,30.14,29.98,16,2,16,0.00
2013-6-12,67.0,55.6,46.6,53.4,49.3,45.4,99,81,54,30.17,30.14,16,1,16,0.00
2013-6-13,70.2,58.0,50.6,57.5,51.1,46.8,98,79,51,30.25,30.16,15,1,15,0.02
2013-6-14,69.0,57.7,49.8,54.4,50.5,46.7,90,78,55,30.26,30.06,7,1,7,0.00
2013-6-15,80.2,62.5,43.9,57.3,51.3,42.7,100,71,41,30.05,29.93,13,2,13,0.00
2013-6-16,78.5,62.0,47.1,61.1,53.3,45.7,100,75,50,30.11,30.01,9,1,10,0.00
2013-6-17,81.5,61.8,50.5,59.7,54.3,48.9,98,79,42,30.12,29.94,14,1,14,0.06
2013-6-18,75.5,59.6,49.9,56.8,51.9,48.0,100,78,43,30.00,29.93,13,1,13,0.00
2013-6-19,74.1,58.7,47.1,55.7,50.5,46.6,100,77,48,30.06,29.96,15,2,15,0.00
2013-6-20,62.0,56.5,51.7,53.8,50.7,48.6,95,82,63,30.15,30.03,15,2,15,0.00
2013-6-21,73.0,60.9,53.1,58.7,53.6,49.9,94,78,54,30.18,30.13,9,1,9,0.00
2013-6-22,84.2,64.3,46.0,59.9,53.2,45.0,100,72,35,30.15,29.85,9,1,9,0.00
2013-6-23,68.3,62.8,59.0,63.3,59.6,55.1,99,90,74,29.85,29.63,9,1,9,0.73
2013-6-24,70.7,60.7,55.6,63.2,57.8,55.3,100,90,64,29.71,29.60,12,1,12,0.23
2013-6-25,75.7,61.7,55.8,64.2,58.2,55.4,100,89,57,29.86,29.69,16,1,16,0.40
2013-6-26,69.8,62.1,56.2,65.6,59.4,55.6,100,91,75,30.08,29.86,8,1,9,0.44
2013-6-27,69.2,63.3,58.1,66.6,62.0,57.8,100,96,88,30.21,30.05,7,0,7,0.25
2013-6-28,90.2,72.0,59.6,72.5,64.7,59.2,100,80,49,30.20,30.05,13,1,13,0.00
2013-6-29,93.3,73.4,60.6,69.7,63.2,59.7,98,74,39,30.12,29.99,9,1,9,0.01
2013-6-30,98.8,76.9,58.2,70.6,64.0,56.8,98,68,33,30.01,29.84,11,2,11,0.00
2013-7-1,95.8,75.2,61.3,74.3,64.7,58.4,94,72,44,30.04,29.91,7,0,7,0.00
2013-7-2,86.5,69.1,57.3,68.6,60.6,55.2,95,77,45,30.12,30.03,11,1,11,0.00
2013-7-3,86.1,67.6,53.3,63.4,56.0,50.5,95,70,39,30.18,30.05,10,1,11,0.00
2013-7-4,73.3,61.9,52.2,60.3,54.3,50.2,95,78,54,30.16,30.05,9,0,9,0.00
2013-7-5,80.6,62.3,48.5,60.8,54.4,47.0,99,77,46,30.07,29.96,7,0,7,0.00
2013-7-6,86.7,64.9,47.4,63.9,55.8,46.0,99,76,43,30.01,29.86,10,1,10,0.00
2013-7-7,85.5,64.3,51.2,66.9,56.8,49.7,98,79,49,29.98,29.89,7,0,7,0.00
2013-7-8,82.7,64.6,50.0,65.1,57.1,48.2,96,78,53,30.12,29.98,7,1,7,0.00
2013-7-9,93.2,70.9,53.5,65.6,58.8,52.4,100,70,35,30.12,29.98,11,1,11,0.00
2013-7-10,84.0,64.5,53.3,58.2,53.1,47.8,92,69,36,30.10,29.97,12,1,12,0.00
2013-7-11,79.8,60.8,45.7,56.8,50.6,43.3,96,72,40,30.10,30.01,11,1,11,0.00
2013-7-12,74.2,58.3,47.2,57.3,50.8,45.4,97,77,49,30.12,30.03,9,0,9,0.00
2013-7-13,84.8,62.5,41.8,56.8,49.2,40.5,99,67,32,30.23,30.10,15,2,15,0.00
2013-7-14,90.0,66.6,45.8,59.2,49.4,38.8,99,60,21,30.17,29.99,10,1,10,0.00
2013-7-15,87.8,66.7,46.5,58.3,50.8,44.2,98,62,27,30.08,29.89,16,3,16,0.00
2013-7-16,87.3,70.1,52.3,61.9,54.1,47.9,90,60,30,29.90,29.80,13,2,13,0.00
2013-7-17,74.2,64.0,53.3,59.2,56.0,49.9,91,76,57,30.22,29.91,11,1,11,0.00
2013-7-18,85.0,64.5,47.6,64.1,55.7,45.7,98,76,46,30.26,30.12,11,1,11,0.00
2013-7-19,87.7,65.6,50.0,65.4,56.8,48.2,97,76,45,30.20,30.04,12,1,12,0.00
2013-7-20,84.0,64.2,51.9,66.8,56.4,49.7,96,78,47,30.12,29.97,11,1,11,0.00
2013-7-21,85.6,64.0,52.8,64.5,56.6,50.8,96,79,46,30.01,29.92,11,1,11,0.00
2013-7-22,83.0,65.0,55.7,64.8,57.9,53.7,95,80,52,30.09,29.97,10,1,10,0.00
2013-7-23,96.5,70.7,55.4,64.9,59.0,53.6,99,72,31,30.10,29.95,12,1,12,0.00
2013-7-24,91.3,69.5,52.4,66.5,58.0,50.8,98,71,36,30.10,29.99,10,1,10,0.00
2013-7-25,92.8,68.5,51.8,63.1,56.2,49.9,98,70,33,30.14,30.03,10,1,10,0.00
2013-7-26,93.8,69.1,50.5,64.3,54.1,43.5,97,65,22,30.18,30.07,10,1,10,0.00
2013-7-27,86.0,63.9,46.9,59.6,53.0,45.0,98,71,39,30.20,30.02,9,1,9,0.00
2013-7-28,73.5,59.3,49.6,58.6,52.9,47.3,96,81,57,30.06,30.00,12,1,12,0.00
2013-7-29,84.8,63.5,48.7,62.5,54.9,47.7,98,77,44,30.04,29.96,10,1,11,0.00
2013-7-30,86.1,64.0,49.6,64.1,55.9,47.9,97,78,46,30.17,30.03,7,1,8,0.00
2013-7-31,79.5,62.9,54.8,64.8,57.4,52.4,97,84,59,30.15,30.00,9,1,10,0.00
2013-8-1,69.8,61.2,55.2,58.8,55.4,52.5,91,82,65,30.10,30.06,12,1,14,0.00
2013-8-2,67.2,61.2,54.0,60.9,57.1,52.6,97,87,74,30.14,30.09,10,1,10,0.00
2013-8-3,78.5,65.8,57.5,61.6,58.7,55.4,96,79,54,30.15,30.05,12,2,12,0.00
2013-8-4,90.6,70.7,55.9,70.1,60.3,54.2,97,73,41,30.08,29.93,9,2,13,0.00
2013-8-5,92.9,69.3,54.6,67.6,58.4,48.6,98,73,31,30.05,29.92,10,1,10,0.00
2013-8-6,95.8,67.7,49.9,68.3,54.6,47.7,99,69,25,30.05,29.91,11,1,11,0.00
2013-8-7,91.7,67.9,52.1,66.9,57.3,50.4,99,73,35,30.05,29.94,9,1,9,0.00
2013-8-8,89.3,68.0,54.4,67.1,58.9,52.9,97,75,46,30.06,29.93,12,1,12,0.00
2013-8-9,86.2,66.5,52.4,66.7,58.1,50.9,98,78,40,29.99,29.85,6,0,6,0.00
2013-8-10,87.7,67.7,56.5,67.2,59.3,52.7,98,77,39,30.04,29.89,11,1,11,0.11
2013-8-11,84.2,65.3,52.4,64.8,56.4,50.9,96,75,44,30.08,29.99,8,1,8,0.01
2013-8-12,81.2,65.6,57.6,60.9,56.1,53.3,91,73,46,30.09,30.02,8,1,9,0.00
2013-8-13,90.8,67.6,49.3,60.7,55.0,47.9,99,69,30,30.12,29.92,7,1,7,0.00
2013-8-14,83.7,64.3,52.8,63.7,58.2,51.4,98,83,44,29.98,29.92,9,0,9,0.13
2013-8-15,69.8,64.5,61.2,67.5,63.4,60.6,100,97,88,30.00,29.93,6,0,6,0.12
2013-8-16,91.0,70.1,60.8,69.2,62.4,56.6,100,80,40,30.02,29.95,12,1,12,0.00
2013-8-17,82.0,66.7,58.2,65.0,59.5,55.6,94,79,51,30.09,30.02,12,1,12,0.00
2013-8-18,77.8,64.7,51.0,64.9,57.5,50.1,100,79,54,30.14,30.07,13,1,13,0.00
2013-8-19,83.7,65.2,50.5,63.6,56.7,49.6,100,77,44,30.14,30.07,10,1,10,0.00
2013-8-20,83.9,66.1,50.1,58.0,53.6,48.8,100,68,36,30.19,30.06,14,2,14,0.00
2013-8-21,88.0,66.6,46.8,57.8,51.7,45.1,100,64,33,30.10,29.93,15,2,15,0.00
2013-8-22,88.0,69.6,51.1,63.7,55.8,49.0,98,64,34,29.95,29.81,11,1,11,0.00
2013-8-23,76.3,66.2,60.3,60.8,58.3,56.6,92,77,55,29.92,29.86,12,2,12,0.00
2013-8-26,78.8,63.7,57.2,62.1,58.1,54.6,96,84,45,29.97,29.88,9,1,9,0.10
2013-8-27,82.3,68.1,60.0,65.6,62.0,58.8,98,83,52,29.97,29.79,9,0,9,0.12
2013-8-28,83.6,68.7,61.8,68.2,64.0,61.7,100,86,55,29.91,29.83,7,0,7,0.15
2013-8-29,73.5,66.1,62.8,70.1,64.8,61.7,100,96,86,30.05,29.84,12,1,12,0.63
2013-8-30,83.3,68.0,55.8,63.9,59.6,55.2,100,77,41,30.16,30.05,12,1,12,0.00
2013-8-31,91.1,67.6,50.6,64.9,57.8,49.9,100,75,36,30.09,29.83,11,2,11,0.00
2013-9-1,88.0,67.1,53.7,65.0,58.0,53.1,100,76,41,29.91,29.81,11,1,11,0.00
2013-9-2,84.0,67.8,57.1,64.5,59.5,55.1,97,77,45,29.95,29.87,13,1,14,0.01
2013-9-3,83.3,65.4,58.4,66.2,60.8,56.3,100,87,53,30.03,29.94,6,1,6,0.75
2013-9-4,73.5,63.8,55.3,65.1,60.6,54.7,100,90,70,30.08,30.00,10,1,10,0.06
2013-9-5,69.8,63.5,60.2,65.3,62.0,59.5,100,95,80,30.05,29.95,11,1,11,0.97
2013-9-6,71.7,63.9,60.2,67.0,62.1,60.2,100,94,75,30.12,29.95,9,0,9,0.43
2013-9-7,80.8,65.4,56.6,65.2,60.1,56.1,100,85,52,30.12,30.02,12,1,12,0.01
2013-9-8,90.0,68.6,54.8,67.2,60.6,54.2,100,79,39,30.13,30.01,9,1,9,0.00
2013-9-9,87.5,67.9,59.0,67.3,61.8,58.2,100,84,48,30.09,29.97,8,1,8,0.00
2013-9-10,85.0,67.9,55.8,65.9,60.4,55.2,100,79,49,30.01,29.87,10,3,12,0.00
2013-9-11,99.7,73.1,55.3,68.3,61.4,54.2,100,72,32,29.96,29.85,10,1,10,0.00
2013-9-12,91.2,67.5,58.3,70.3,61.4,57.0,97,83,47,30.03,29.90,8,0,8,0.00
2013-9-13,69.9,63.6,59.5,63.8,60.6,58.4,98,90,78,29.99,29.89,5,0,5,0.00
2013-9-14,74.5,64.2,57.3,64.5,60.7,56.2,96,89,70,29.90,29.75,8,1,8,0.00
2013-9-15,65.7,60.3,54.7,63.0,59.1,54.0,100,96,88,29.85,29.74,9,0,9,0.04
2013-9-16,72.9,62.4,57.2,63.9,58.7,54.9,99,89,63,29.94,29.85,11,1,11,0.02
2013-9-17,71.5,60.0,52.9,58.0,54.7,50.6,98,84,52,29.96,29.86,11,1,11,0.02
2013-9-18,75.1,58.1,47.5,58.7,50.9,-99.9,100,81,50,30.09,29.96,9,-10,9,0.00
2013-9-19,87.0,61.4,46.4,57.2,52.1,45.6,100,77,32,30.06,29.78,7,1,7,0.00
2013-9-20,74.3,56.7,45.1,59.2,53.3,44.6,100,90,57,29.79,29.63,13,0,13,0.18
2013-9-21,73.2,59.7,51.4,61.4,55.5,51.1,100,88,55,29.74,29.67,9,0,9,0.01
2013-9-22,64.8,55.9,52.8,61.7,55.0,52.5,100,97,84,29.79,29.58,12,2,12,1.48
2013-9-23,59.8,54.3,47.9,59.3,53.9,47.6,100,98,94,29.99,29.79,6,1,6,0.40
2013-9-24,67.0,52.4,47.9,56.9,50.9,47.6,100,95,62,29.98,29.86,10,0,10,0.11
2013-9-25,66.7,53.1,44.7,56.2,50.4,43.9,100,91,61,30.04,29.86,11,1,11,0.03
2013-9-26,71.8,51.6,43.7,56.6,48.2,43.4,100,90,52,30.15,30.04,7,0,7,0.00
2013-9-27,54.8,51.0,42.5,54.4,50.7,41.6,100,99,96,30.15,29.88,12,1,12,0.28
2013-9-28,59.5,54.7,50.2,59.5,54.6,50.0,100,100,94,29.88,29.38,21,2,21,2.43
2013-9-29,54.1,51.7,48.7,53.5,51.3,47.6,100,99,95,29.58,29.27,16,2,16,0.83
2013-9-30,58.6,51.2,46.1,56.2,50.2,45.6,100,97,87,29.97,29.46,20,2,20,1.36
2013-10-1,60.7,50.4,45.7,55.9,49.0,45.5,100,95,72,30.16,29.94,10,1,10,0.84
2013-10-2,54.1,48.7,46.1,52.7,48.3,45.8,100,99,90,30.19,30.06,9,0,9,0.56
2013-10-3,61.2,49.6,41.9,54.4,47.4,41.0,100,93,69,30.46,30.20,7,0,7,0.01
2013-10-4,71.1,49.9,40.6,55.0,46.4,40.3,100,89,52,30.49,30.37,6,0,6,0.01
2013-10-5,73.7,50.9,38.8,55.5,46.3,38.4,100,87,43,30.37,30.16,9,0,9,0.00
2013-10-6,80.4,54.5,36.4,54.7,45.8,36.1,100,78,33,30.16,29.91,9,1,9,0.00
2013-10-7,62.3,53.7,50.7,55.4,51.2,47.7,98,91,65,30.08,29.93,14,2,14,0.20
2013-10-8,58.7,50.7,39.4,51.8,46.8,38.6,98,87,64,30.09,29.97,21,1,21,0.12
2013-10-9,64.7,46.2,34.8,49.7,42.7,34.5,100,89,53,30.16,29.98,7,0,7,0.01
2013-10-10,58.2,49.8,44.3,56.2,48.9,43.6,100,97,88,30.09,29.96,5,0,5,0.05
2013-10-11,57.3,48.9,41.8,52.9,47.1,41.4,100,94,78,30.17,30.08,5,0,5,0.00
2013-10-12,61.2,49.4,41.1,52.2,46.8,40.3,100,91,66,30.23,30.08,8,1,8,0.11
2013-10-13,64.0,45.7,34.4,50.7,42.4,33.9,100,89,60,30.38,30.23,11,1,11,0.00
2013-10-14,62.9,46.2,36.2,50.6,43.3,35.4,100,91,61,30.45,30.38,12,1,12,0.00
2013-10-15,64.3,45.2,34.1,53.2,42.7,33.6,100,92,64,30.41,30.19,8,0,8,0.00
2013-10-16,55.4,45.6,35.1,51.4,44.1,34.6,100,95,82,30.23,30.16,8,1,8,0.00
2013-10-17,63.2,50.5,41.0,52.5,47.2,39.7,98,89,64,30.29,30.22,10,1,10,0.00
2013-10-18,53.7,45.3,37.7,50.5,44.4,36.9,100,97,87,30.26,30.17,9,1,9,0.01
2013-10-19,49.6,44.8,37.7,49.3,44.6,37.2,100,99,97,30.21,30.17,8,1,8,0.02
2013-10-20,50.0,47.7,46.1,48.4,47.1,46.1,100,98,93,30.22,30.16,10,2,10,0.00
2013-10-21,51.4,48.4,46.5,49.5,47.7,46.2,100,98,93,30.18,30.11,12,3,12,0.00
2013-10-22,61.5,50.9,41.9,53.1,48.7,40.7,99,93,73,30.13,30.04,10,2,10,0.00
2013-10-23,55.4,47.3,43.0,52.6,46.7,42.0,100,98,88,30.07,30.00,7,1,7,0.01
2013-10-24,51.7,46.1,41.7,50.1,45.7,41.7,100,99,93,30.15,30.05,5,0,5,0.01
2013-10-25,56.7,50.5,44.7,52.7,48.9,43.4,100,94,83,30.32,30.15,9,1,9,0.00
2013-10-26,52.6,49.3,44.0,48.5,47.0,43.3,100,92,84,30.34,30.21,10,1,10,0.00
2013-10-27,55.5,48.7,38.0,49.6,46.2,37.2,99,91,78,30.22,29.92,16,2,16,0.01
2013-10-28,59.2,45.4,33.2,43.3,35.9,31.2,100,74,39,29.97,29.90,21,3,21,0.00
2013-10-29,58.7,40.1,27.9,42.5,34.7,27.1,100,84,47,30.06,29.96,4,0,5,0.01
2013-10-30,59.0,44.5,32.1,49.3,41.0,31.6,100,89,69,30.17,30.05,8,0,8,0.03
2013-10-31,54.4,49.9,46.5,53.8,49.5,45.6,100,99,95,30.28,30.12,5,0,5,0.20
2013-11-1,61.2,49.9,42.2,54.9,48.7,41.9,100,96,76,30.30,29.86,4,0,4,0.04
2013-11-2,51.9,48.5,44.2,51.4,46.0,39.7,100,91,69,29.95,29.55,31,4,31,0.53
2013-11-3,51.9,43.4,31.3,43.3,38.7,30.3,99,84,61,30.13,29.94,16,1,16,0.00
2013-11-4,48.7,40.2,29.4,44.1,38.7,28.7,100,95,79,30.21,30.06,6,0,6,0.23
2013-11-5,55.3,48.4,40.0,52.3,46.8,39.5,100,95,74,30.27,30.03,13,1,13,0.17
2013-11-6,50.9,46.1,40.0,48.0,45.4,39.5,100,97,87,30.33,30.05,7,1,7,0.41
2013-11-7,52.4,48.7,46.2,52.4,48.2,45.3,100,98,93,30.05,29.77,19,3,19,0.75
2013-11-8,54.9,46.6,36.7,49.8,44.2,36.2,99,91,77,30.18,30.05,7,1,7,0.00
2013-11-9,47.4,42.5,36.3,46.0,42.2,36.3,100,99,93,30.16,30.09,8,1,8,0.05
2013-11-10,51.4,47.5,44.9,48.2,46.0,44.6,100,95,85,30.15,30.08,12,3,12,0.01
2013-11-11,53.9,46.9,40.9,48.7,45.0,40.6,100,94,81,30.18,30.03,10,1,10,0.00
2013-11-12,58.2,50.0,41.8,55.5,49.1,41.5,100,97,86,30.40,30.05,7,0,7,0.19
2013-11-13,56.3,47.4,37.9,53.5,46.3,37.5,100,96,82,30.47,30.33,6,0,6,0.05
2013-11-14,52.3,43.7,37.0,48.9,42.8,36.5,100,97,83,30.33,30.08,7,0,7,0.00
2013-11-15,47.3,43.0,34.6,47.3,42.5,34.0,100,98,83,30.09,29.43,22,2,22,0.53
2013-11-16,48.2,44.5,39.9,41.8,39.8,37.7,97,84,73,29.82,29.44,21,2,21,0.05
2013-11-17,48.7,44.7,39.4,48.7,44.6,38.6,100,100,97,29.93,29.82,9,1,9,0.47
2013-11-18,50.7,48.9,47.3,50.6,48.8,47.3,100,100,98,29.93,29.58,15,2,15,0.94
2013-11-19,51.0,44.5,36.7,51.0,42.0,35.4,100,91,69,30.07,29.60,15,2,15,0.21
2013-11-20,42.6,34.2,26.6,35.5,30.0,25.8,99,85,61,30.52,30.07,13,2,13,0.00
2013-11-21,42.2,30.6,22.4,33.4,26.8,21.7,100,87,56,30.67,30.52,12,1,12,0.00
2013-11-22,45.0,32.6,24.5,35.3,29.0,23.5,99,88,62,30.66,30.47,11,1,11,0.00
2013-11-23,45.3,32.4,24.0,38.4,30.4,23.2,100,93,72,30.47,30.22,8,0,8,0.01
2013-11-24,40.1,32.3,26.4,39.6,31.9,25.7,100,99,96,30.28,30.19,3,0,3,0.00
2013-11-25,50.6,35.1,27.9,41.0,32.4,27.6,100,91,64,30.35,30.27,3,0,3,0.01
2013-11-26,48.9,37.3,26.6,42.2,34.7,26.1,100,91,69,30.29,30.10,4,0,5,0.00
2013-11-27,52.2,41.2,30.9,45.0,38.8,30.2,100,92,72,30.11,29.98,3,0,3,0.00
2013-11-28,50.5,35.9,28.4,42.4,33.9,28.2,100,93,70,30.20,30.04,6,0,6,0.00
2013-11-29,49.3,42.8,31.4,46.2,41.3,30.8,100,95,88,30.34,30.20,7,0,7,0.00
2013-11-30,48.4,45.6,42.0,47.5,44.8,41.7,100,97,93,30.36,30.13,4,1,7,0.18
2013-12-1,52.1,49.1,42.4,52.1,48.1,39.6,100,97,83,30.13,29.83,22,3,22,0.88
2013-12-2,42.3,36.9,32.5,39.8,35.2,32.0,99,94,83,30.08,29.89,10,1,10,0.07
2013-12-3,39.4,31.7,23.5,32.2,27.5,21.9,100,86,57,30.33,30.08,14,1,14,0.00
2013-12-4,35.2,25.0,19.3,31.1,23.0,18.4,99,92,76,30.38,30.32,5,0,5,0.00
2013-12-5,30.5,23.3,15.2,27.8,21.9,14.0,98,94,87,30.35,30.19,2,0,2,0.00
2013-12-6,31.7,28.2,25.7,26.8,18.5,8.6,97,69,46,30.21,30.10,20,4,20,0.00
2013-12-7,29.4,22.8,11.9,14.7,11.2,7.0,92,62,44,30.45,30.21,16,2,16,0.00
2013-12-8,30.4,20.3,12.0,18.9,14.6,9.9,94,80,51,30.61,30.45,6,0,6,0.00
2013-12-9,30.4,25.7,15.7,26.7,21.8,13.8,95,85,76,30.61,30.51,6,0,6,0.00
2013-12-10,36.0,31.9,27.5,35.5,31.2,26.3,99,98,95,30.52,30.43,6,0,6,0.06
2013-12-11,36.7,33.4,29.0,36.2,33.2,28.8,100,99,97,30.43,30.19,5,0,5,0.00
2013-12-12,39.2,34.2,28.2,39.2,33.9,28.0,100,99,96,30.19,30.07,9,1,9,0.34
2013-12-13,46.0,42.2,39.2,46.0,42.2,39.1,100,100,100,30.46,30.16,6,0,6,0.04
2013-12-14,45.3,40.8,35.2,45.2,40.6,35.2,100,99,97,30.46,30.35,7,0,7,0.00
2013-12-15,49.7,44.3,40.3,49.4,44.2,40.3,100,100,97,30.47,30.38,7,0,7,0.15
2013-12-16,43.2,40.9,37.2,43.2,40.8,37.1,100,100,98,30.51,30.29,7,0,7,0.01
2013-12-17,42.4,39.9,37.4,41.6,39.7,37.4,100,99,96,30.29,30.14,6,1,6,0.00
2013-12-18,46.1,38.7,30.4,42.1,36.4,29.5,100,92,68,30.18,30.04,16,1,16,0.03
2013-12-19,37.0,30.3,24.5,35.1,29.5,23.8,100,97,84,30.38,30.18,5,0,5,0.01
2013-12-20,46.5,36.2,30.6,46.5,36.0,29.9,100,99,97,30.24,29.77,14,1,14,0.21
2013-12-21,47.7,44.7,42.2,47.7,44.5,42.2,100,99,97,30.20,29.87,7,1,8,0.09
2013-12-22,49.2,46.9,44.2,49.1,46.9,44.1,100,100,100,30.33,30.19,6,1,6,0.07
2013-12-23,50.2,46.4,38.0,49.3,44.7,36.7,100,94,79,30.53,30.21,19,2,19,0.33
2013-12-24,42.3,36.7,31.2,40.6,35.8,30.5,100,97,88,30.64,30.53,7,0,7,0.00
2013-12-25,41.1,37.5,32.2,39.7,37.0,32.0,100,98,92,30.55,30.42,5,0,5,0.00
2013-12-26,44.3,35.8,30.4,40.4,34.8,29.9,100,96,85,30.43,30.24,4,0,4,0.00
2013-12-27,43.1,37.8,30.0,43.0,37.5,29.8,100,99,94,30.40,30.17,8,1,8,0.01
2013-12-28,46.3,40.0,35.5,44.0,39.5,35.2,100,98,87,30.55,30.40,5,0,5,0.00
2013-12-29,41.9,38.5,36.3,41.2,38.3,35.6,100,99,96,30.50,30.33,3,0,3,0.00
2013-12-30,43.1,40.4,37.7,41.7,39.8,37.7,100,98,91,30.34,30.17,10,1,10,0.01
2013-12-31,45.3,42.8,40.6,45.3,42.6,39.8,100,99,95,30.40,30.21,5,0,5,0.04
2014-1-1,44.8,42.7,40.7,43.9,42.5,40.7,100,99,96,30.42,30.27,9,1,9,0.01
2014-1-2,49.1,44.5,40.9,46.0,43.1,40.9,100,95,83,30.27,29.96,24,1,24,0.16